Time,TemperatureF,DewpointF,PressureIn,WindDirection,WindDirectionDegrees,WindSpeedMPH,WindSpeedGustMPH,Humidity,HourlyPrecipIn,Conditions,Clouds,dailyrainin,SolarRadiationWatts/m^2,SoftwareType,DateUTC
2013-04-17 00:10:00,54.7,50.0,30.14,SSW,205,6.0,14.0,85,0.00,,,0.00,0,weatherlink.com 1.10,2013-04-17 04:10:00,
2013-04-17 00:25:00,55.0,51.0,30.14,SSW,210,3.0,13.0,86,0.00,,,0.00,0,weatherlink.com 1.10,2013-04-17 04:25:00,
2013-04-17 00:40:00,55.3,51.0,30.13,SSW,211,5.0,17.0,86,0.00,,,0.00,0,weatherlink.com 1.10,2013-04-17 04:40:00,
2013-04-17 00:55:00,55.2,51.0,30.13,SSW,199,2.0,10.0,86,0.00,,,0.00,0,weatherlink.com 1.10,2013-04-17 04:55:00,
2013-04-17 01:10:00,55.1,51.0,30.13,South,178,4.0,8.0,87,0.00,,,0.00,0,weatherlink.com 1.10,2013-04-17 05:10:00,
2013-04-17 01:25:00,55.1,52.0,30.13,SW,219,4.0,10.0,88,0.00,,,0.00,0,weatherlink.com 1.10,2013-04-17 05:25:00,
2013-04-17 01:40:00,55.0,52.0,30.13,South,179,3.0,7.0,88,0.00,,,0.00,0,weatherlink.com 1.10,2013-04-17 05:40:00,
2013-04-17 01:55:00,54.7,52.0,30.12,SSE,162,2.0,7.0,89,0.00,,,0.00,0,weatherlink.com 1.10,2013-04-17 05:55:00,
2013-04-17 02:10:00,54.6,52.0,30.11,SW,223,0.0,11.0,90,0.00,,,0.00,0,weatherlink.com 1.10,2013-04-17 06:10:00,
2013-04-17 02:25:00,54.8,52.0,30.11,SSW,205,0.0,10.0,90,0.00,,,0.00,0,weatherlink.com 1.10,2013-04-17 06:25:00,
2013-04-17 02:40:00,54.6,52.0,30.11,SW,227,4.0,8.0,91,0.00,,,0.00,0,weatherlink.com 1.10,2013-04-17 06:40:00,
2013-04-17 02:55:00,54.6,52.0,30.11,SW,234,4.0,8.0,91,0.00,,,0.00,0,weatherlink.com 1.10,2013-04-17 06:55:00,
2013-04-17 03:10:00,54.7,52.0,30.11,South,186,3.0,7.0,91,0.00,,,0.00,0,weatherlink.com 1.10,2013-04-17 07:10:00,
2013-04-17 03:25:00,54.7,52.0,30.11,SSW,196,0.0,5.0,91,0.00,,,0.00,0,weatherlink.com 1.10,2013-04-17 07:25:00,
2013-04-17 03:40:00,54.8,52.0,30.10,SSW,193,2.0,4.0,91,0.00,,,0.00,0,weatherlink.com 1.10,2013-04-17 07:40:00,
2013-04-17 03:55:00,54.9,52.0,30.11,NNW,348,2.0,6.0,91,0.00,,,0.00,0,weatherlink.com 1.10,2013-04-17 07:55:00,
2013-04-17 04:10:00,54.9,52.0,30.11,WSW,257,0.0,3.0,91,0.00,,,0.00,0,weatherlink.com 1.10,2013-04-17 08:10:00,
2013-04-17 04:25:00,54.8,52.0,30.11,West,259,0.0,0.0,91,0.00,,,0.00,0,weatherlink.com 1.10,2013-04-17 08:25:00,
2013-04-17 04:40:00,54.8,53.0,30.11,West,259,0.0,1.0,92,0.00,,,0.00,0,weatherlink.com 1.10,2013-04-17 08:40:00,
2013-04-17 04:55:00,54.8,53.0,30.12,West,259,0.0,1.0,92,0.00,,,0.00,0,weatherlink.com 1.10,2013-04-17 08:55:00,
2013-04-17 05:10:00,54.8,53.0,30.11,West,259,1.0,2.0,93,0.00,,,0.00,0,weatherlink.com 1.10,2013-04-17 09:10:00,
2013-04-17 05:25:00,54.6,51.0,30.11,NNW,332,5.0,9.0,86,0.00,,,0.00,0,weatherlink.com 1.10,2013-04-17 09:25:00,
2013-04-17 05:40:00,54.4,45.0,30.12,NW,326,3.0,12.0,71,0.00,,,0.00,0,weatherlink.com 1.10,2013-04-17 09:40:00,
2013-04-17 05:55:00,53.9,44.0,30.12,WNW,289,1.0,7.0,69,0.00,,,0.00,0,weatherlink.com 1.10,2013-04-17 09:55:00,
2013-04-17 06:10:00,53.6,42.0,30.12,WNW,298,3.0,6.0,66,0.00,,,0.00,0,weatherlink.com 1.10,2013-04-17 10:10:00,
2013-04-17 06:26:00,53.4,40.0,30.12,WNW,300,1.0,6.0,62,0.00,,,0.00,5,weatherlink.com 1.10,2013-04-17 10:26:00,
2013-04-17 06:41:00,53.3,40.0,30.13,NNW,341,1.0,6.0,61,0.00,,,0.00,9,weatherlink.com 1.10,2013-04-17 10:41:00,
2013-04-17 06:56:00,53.2,39.0,30.14,NNW,335,2.0,5.0,59,0.00,,,0.00,23,weatherlink.com 1.10,2013-04-17 10:56:00,
2013-04-17 07:11:00,53.2,39.0,30.14,North,355,0.0,5.0,60,0.00,,,0.00,65,weatherlink.com 1.10,2013-04-17 11:11:00,
2013-04-17 07:26:00,53.4,40.0,30.15,WNW,302,2.0,5.0,60,0.00,,,0.00,69,weatherlink.com 1.10,2013-04-17 11:26:00,
2013-04-17 07:41:00,53.4,40.0,30.15,North,5,6.0,9.0,61,0.00,,,0.00,76,weatherlink.com 1.10,2013-04-17 11:41:00,
2013-04-17 07:57:00,53.6,40.0,30.16,NNW,336,7.0,9.0,61,0.00,,,0.00,141,weatherlink.com 1.10,2013-04-17 11:57:00,
2013-04-17 08:12:00,54.4,41.0,30.16,NNW,340,4.0,12.0,62,0.00,,,0.00,160,weatherlink.com 1.10,2013-04-17 12:12:00,
2013-04-17 08:27:00,54.4,41.0,30.16,North,355,10.0,12.0,62,0.00,,,0.00,193,weatherlink.com 1.10,2013-04-17 12:27:00,
2013-04-17 08:42:00,54.1,42.0,30.17,North,5,6.0,15.0,63,0.00,,,0.00,181,weatherlink.com 1.10,2013-04-17 12:42:00,
2013-04-17 08:57:00,54.2,42.0,30.17,NNW,346,7.0,9.0,63,0.00,,,0.00,160,weatherlink.com 1.10,2013-04-17 12:57:00,
2013-04-17 09:12:00,55.1,42.0,30.17,North,350,4.0,12.0,62,0.00,,,0.00,230,weatherlink.com 1.10,2013-04-17 13:12:00,
2013-04-17 09:28:00,55.1,42.0,30.18,North,349,5.0,13.0,62,0.00,,,0.00,167,weatherlink.com 1.10,2013-04-17 13:28:00,
2013-04-17 09:43:00,57.2,42.0,30.18,NNW,332,6.0,10.0,57,0.00,,,0.00,338,weatherlink.com 1.10,2013-04-17 13:43:00,
2013-04-17 09:58:00,57.3,41.0,30.19,NNE,27,7.0,17.0,55,0.00,,,0.00,308,weatherlink.com 1.10,2013-04-17 13:58:00,
2013-04-17 10:13:00,57.9,42.0,30.18,NNE,17,6.0,11.0,56,0.00,,,0.00,606,weatherlink.com 1.10,2013-04-17 14:13:00,
2013-04-17 10:28:00,59.4,41.0,30.18,North,5,4.0,10.0,50,0.00,,,0.00,684,weatherlink.com 1.10,2013-04-17 14:28:00,
2013-04-17 10:43:00,60.2,41.0,30.18,WNW,285,4.0,13.0,49,0.00,,,0.00,782,weatherlink.com 1.10,2013-04-17 14:43:00,
2013-04-17 10:59:00,60.3,39.0,30.19,North,360,7.0,12.0,46,0.00,,,0.00,679,weatherlink.com 1.10,2013-04-17 14:59:00,
2013-04-17 11:15:00,61.9,40.0,30.18,North,9,6.0,14.0,45,0.00,,,0.00,830,weatherlink.com 1.10,2013-04-17 15:15:00,
2013-04-17 11:29:00,62.4,39.0,30.17,West,280,5.0,19.0,43,0.00,,,0.00,860,weatherlink.com 1.10,2013-04-17 15:29:00,
2013-04-17 11:45:00,62.8,39.0,30.17,WNW,302,8.0,10.0,41,0.00,,,0.00,826,weatherlink.com 1.10,2013-04-17 15:45:00,
2013-04-17 11:59:00,62.4,39.0,30.17,NNW,333,4.0,10.0,43,0.00,,,0.00,895,weatherlink.com 1.10,2013-04-17 15:59:00,
2013-04-17 12:15:00,63.1,39.0,30.17,NW,316,5.0,12.0,41,0.00,,,0.00,889,weatherlink.com 1.10,2013-04-17 16:15:00,
2013-04-17 12:29:00,63.8,39.0,30.17,North,5,4.0,11.0,41,0.00,,,0.00,875,weatherlink.com 1.10,2013-04-17 16:29:00,
2013-04-17 12:45:00,63.7,39.0,30.16,WNW,286,9.0,13.0,41,0.00,,,0.00,916,weatherlink.com 1.10,2013-04-17 16:45:00,
2013-04-17 13:00:00,63.2,39.0,30.16,NNE,19,0.0,13.0,41,0.00,,,0.00,928,weatherlink.com 1.10,2013-04-17 17:00:00,
2013-04-17 13:15:00,65.1,39.0,30.16,NNW,346,4.0,12.0,38,0.00,,,0.00,921,weatherlink.com 1.10,2013-04-17 17:15:00,
2013-04-17 13:30:00,64.6,38.0,30.16,North,360,6.0,12.0,38,0.00,,,0.00,918,weatherlink.com 1.10,2013-04-17 17:30:00,
2013-04-17 13:45:00,64.9,37.0,30.16,NNW,345,8.0,12.0,36,0.00,,,0.00,905,weatherlink.com 1.10,2013-04-17 17:45:00,
2013-04-17 14:00:00,65.0,39.0,30.16,NNW,344,7.0,13.0,38,0.00,,,0.00,891,weatherlink.com 1.10,2013-04-17 18:00:00,
2013-04-17 14:16:00,64.5,37.0,30.16,NNW,328,3.0,15.0,36,0.00,,,0.00,870,weatherlink.com 1.10,2013-04-17 18:16:00,
2013-04-17 14:31:00,65.9,38.0,30.16,West,279,5.0,10.0,36,0.00,,,0.00,849,weatherlink.com 1.10,2013-04-17 18:31:00,
2013-04-17 14:46:00,67.4,39.0,30.16,North,360,3.0,12.0,35,0.00,,,0.00,826,weatherlink.com 1.10,2013-04-17 18:46:00,
2013-04-17 15:01:00,66.6,36.0,30.16,North,355,5.0,14.0,33,0.00,,,0.00,795,weatherlink.com 1.10,2013-04-17 19:01:00,
2013-04-17 15:16:00,66.8,37.0,30.16,WSW,255,4.0,8.0,34,0.00,,,0.00,765,weatherlink.com 1.10,2013-04-17 19:16:00,
2013-04-17 15:31:00,67.3,38.0,30.16,NNW,342,5.0,9.0,34,0.00,,,0.00,731,weatherlink.com 1.10,2013-04-17 19:31:00,
2013-04-17 15:46:00,67.0,37.0,30.16,NNW,346,3.0,9.0,33,0.00,,,0.00,693,weatherlink.com 1.10,2013-04-17 19:46:00,
2013-04-17 16:02:00,67.9,37.0,30.16,NNE,17,4.0,10.0,32,0.00,,,0.00,650,weatherlink.com 1.10,2013-04-17 20:02:00,
2013-04-17 16:17:00,67.2,36.0,30.16,NNE,13,4.0,11.0,32,0.00,,,0.00,606,weatherlink.com 1.10,2013-04-17 20:17:00,
2013-04-17 16:32:00,67.6,37.0,30.17,NNW,345,4.0,10.0,32,0.00,,,0.00,561,weatherlink.com 1.10,2013-04-17 20:32:00,
2013-04-17 16:47:00,67.1,37.0,30.16,North,351,8.0,15.0,33,0.00,,,0.00,513,weatherlink.com 1.10,2013-04-17 20:47:00,
2013-04-17 17:02:00,67.4,35.0,30.17,NNW,329,3.0,13.0,30,0.00,,,0.00,466,weatherlink.com 1.10,2013-04-17 21:02:00,
2013-04-17 17:17:00,67.6,35.0,30.16,NNW,342,6.0,12.0,30,0.00,,,0.00,271,weatherlink.com 1.10,2013-04-17 21:17:00,
2013-04-17 17:32:00,67.2,35.0,30.18,North,355,3.0,12.0,30,0.00,,,0.00,292,weatherlink.com 1.10,2013-04-17 21:32:00,
2013-04-17 17:47:00,67.0,35.0,30.18,NNE,18,8.0,8.0,31,0.00,,,0.00,290,weatherlink.com 1.10,2013-04-17 21:47:00,
2013-04-17 18:02:00,67.0,36.0,30.19,NNW,327,0.0,8.0,32,0.00,,,0.00,250,weatherlink.com 1.10,2013-04-17 22:02:00,
2013-04-17 18:18:00,67.0,37.0,30.20,North,5,4.0,8.0,33,0.00,,,0.00,186,weatherlink.com 1.10,2013-04-17 22:18:00,
2013-04-17 18:33:00,65.9,41.0,30.20,SE,139,7.0,8.0,40,0.00,,,0.00,125,weatherlink.com 1.10,2013-04-17 22:33:00,
2013-04-17 18:48:00,58.0,42.0,30.21,SE,144,6.0,10.0,55,0.00,,,0.00,74,weatherlink.com 1.10,2013-04-17 22:48:00,
2013-04-17 19:03:00,56.3,42.0,30.22,SSE,148,5.0,8.0,60,0.00,,,0.00,25,weatherlink.com 1.10,2013-04-17 23:03:00,
2013-04-17 19:19:00,55.8,42.0,30.24,SE,132,4.0,10.0,61,0.00,,,0.00,12,weatherlink.com 1.10,2013-04-17 23:19:00,
2013-04-17 19:33:00,55.1,43.0,30.24,SE,142,2.0,7.0,64,0.00,,,0.00,0,weatherlink.com 1.10,2013-04-17 23:33:00,
2013-04-17 19:48:00,53.2,44.0,30.26,SE,131,6.0,9.0,72,0.00,,,0.00,0,weatherlink.com 1.10,2013-04-17 23:48:00,
2013-04-17 20:03:00,51.9,44.0,30.27,ESE,121,5.0,8.0,75,0.00,,,0.00,0,weatherlink.com 1.10,2013-04-18 00:03:00,
2013-04-17 20:19:00,51.3,44.0,30.27,SSE,148,4.0,6.0,77,0.00,,,0.00,0,weatherlink.com 1.10,2013-04-18 00:19:00,
2013-04-17 20:35:00,50.9,43.0,30.27,SSE,153,4.0,6.0,75,0.00,,,0.00,0,weatherlink.com 1.10,2013-04-18 00:35:00,
2013-04-17 20:49:00,50.6,43.0,30.28,SSE,157,2.0,8.0,74,0.00,,,0.00,0,weatherlink.com 1.10,2013-04-18 00:49:00,
2013-04-17 21:06:00,50.2,43.0,30.28,SE,143,4.0,6.0,75,0.00,,,0.00,0,weatherlink.com 1.10,2013-04-18 01:06:00,
2013-04-17 21:20:00,49.9,42.0,30.29,SSE,154,4.0,5.0,75,0.00,,,0.00,0,weatherlink.com 1.10,2013-04-18 01:20:00,
2013-04-17 21:50:00,49.4,41.0,30.31,SSE,154,1.0,4.0,74,0.00,,,0.00,0,weatherlink.com 1.10,2013-04-18 01:50:00,
2013-04-17 22:05:00,48.4,41.0,30.31,SSE,154,1.0,2.0,76,0.00,,,0.00,0,weatherlink.com 1.10,2013-04-18 02:05:00,
2013-04-17 22:20:00,48.0,41.0,30.31,SSE,154,0.0,2.0,76,0.00,,,0.00,0,weatherlink.com 1.10,2013-04-18 02:20:00,
2013-04-17 22:35:00,47.1,41.0,30.30,SSE,154,0.0,0.0,78,0.00,,,0.00,0,weatherlink.com 1.10,2013-04-18 02:35:00,
2013-04-17 22:50:00,46.4,41.0,30.30,SSE,154,0.0,1.0,80,0.00,,,0.00,0,weatherlink.com 1.10,2013-04-18 02:50:00,
2013-04-17 23:06:00,45.5,40.0,30.30,SSE,154,0.0,0.0,81,0.00,,,0.00,0,weatherlink.com 1.10,2013-04-18 03:06:00,
2013-04-17 23:21:00,44.5,40.0,30.31,SSE,154,0.0,1.0,83,0.00,,,0.00,0,weatherlink.com 1.10,2013-04-18 03:21:00,
2013-04-17 23:36:00,43.7,39.0,30.30,SSE,154,0.0,0.0,84,0.00,,,0.00,0,weatherlink.com 1.10,2013-04-18 03:36:00,
2013-04-17 23:51:00,43.1,39.0,30.32,SSE,154,0.0,1.0,85,0.00,,,0.00,0,weatherlink.com 1.10,2013-04-18 03:51:00,